Home   Weather   Muyinga   Past weeks

Flag for Burundi Past Weather in Muyinga, Burundi — Yesterday and Last 2 Weeks

Now
66 °F

Partly cloudy.


Feels Like: 66 °F
Forecast: 59 / 72 °F
Wind: 5 mph from Northwest

Location: Kigali Airport

Current Time: Apr 29, 2017 at 3:48:36 am

Latest Report: Apr 29, 2017 at 3:00 am


Visibility: N/A

Pressure: 30.12 "Hg (24.55 "Hg at 1749m altitude)

Humidity: 88%

Dew Point: 63 °F

Location of MuyingaLocation

Past Weather in Muyinga — Graph

°F

Muyinga Temperature Yesterday

Maximum temperature yesterday: 77 °F (at 12:30 pm)
Minimum temperature yesterday: 63 °F (at 5:00 am)
Average temperature yesterday: 70 °F

High & Low Weather Summary for the Past Weeks

 TemperatureHumidityPressure
High81 °F (Apr 19, 2:00 pm)100% (Apr 19, 11:00 pm)30.27 "Hg (Apr 19, 11:00 pm)
Low59 °F (Apr 26, 5:00 am)48% (Apr 19, 3:30 pm)29.98 "Hg (Apr 19, 3:30 pm)
Average68 °F80%30.13 "Hg
* Reported Apr 19 9:00 am — Apr 29 2:00 am, Muyinga, Weather by CustomWeather, © 2017

Note: Actual official high and low records may vary slightly from our data, if they occured in-between our weather recording intervals... More about our weather records

Advertising

Muyinga Weather History for the Previous 24 Hours

Scroll right to see more
 ConditionsComfort  
Time TempWeatherWind HumidityBarometerVisibility
2:00 am
Sat, Apr 29
64 °FPartly cloudy.3 mph94%30.12 "HgN/A
1:30 am64 °FPassing clouds.3 mph94%30.15 "HgN/A
1:00 am66 °FPassing clouds.7 mph88%30.15 "HgN/A
12:30 am66 °FPartly cloudy.8 mph88%30.15 "HgN/A
12:00 am70 °FPassing clouds.3 mph78%30.15 "HgN/A
11:30 pm
Fri, Apr 28
68 °FPassing clouds.2 mph78%30.18 "HgN/A
10:30 pm70 °FPassing clouds.3 mph78%30.18 "HgN/A
10:00 pm70 °FPassing clouds.3 mph73%30.18 "HgN/A
9:00 pm70 °FPassing clouds.3 mph78%30.15 "HgN/A
8:30 pm72 °FPassing clouds.6 mph69%30.15 "HgN/A
8:00 pm72 °FPassing clouds.6 mph69%30.12 "HgN/A
7:00 pm73 °FPassing clouds.2 mph61%30.09 "HgN/A
5:30 pm75 °FScattered clouds.2 mph57%30.09 "HgN/A
5:00 pm75 °FScattered clouds.3 mph61%30.09 "HgN/A
4:30 pm75 °FScattered clouds.5 mph57%30.09 "HgN/A
4:00 pm75 °FBroken clouds.5 mph61%30.09 "HgN/A
3:00 pm77 °FBroken clouds.5 mph57%30.09 "HgN/A
2:00 pm75 °FBroken clouds.7 mph61%30.12 "HgN/A
1:00 pm75 °FBroken clouds.8 mph61%30.15 "HgN/A
12:30 pm77 °FBroken clouds.7 mph65%30.15 "HgN/A
12:00 pm73 °FBroken clouds.6 mph69%30.18 "HgN/A
11:30 am75 °FPartly sunny.8 mph65%30.18 "HgN/A
10:00 am72 °FBroken clouds.7 mph73%30.21 "HgN/A
9:30 am72 °FScattered clouds.6 mph69%30.21 "HgN/A
9:00 am72 °FScattered clouds.7 mph73%30.21 "HgN/A
8:30 am70 °FScattered clouds.3 mph78%30.21 "HgN/A
8:00 am68 °FBroken clouds.3 mph83%30.21 "HgN/A
7:30 am66 °FBroken clouds.2 mph88%30.21 "HgN/A
7:00 am66 °FBroken clouds.No wind88%30.18 "Hg6 mi
6:30 am64 °FBroken clouds.2 mph94%30.18 "HgN/A
6:00 am64 °FScattered clouds.No wind88%30.18 "HgN/A
5:30 am64 °FPassing clouds.No wind88%30.15 "HgN/A
5:00 am63 °FPassing clouds.2 mph94%30.15 "HgN/A
4:30 am66 °FPassing clouds.No wind83%30.15 "HgN/A
4:00 am66 °FPassing clouds.2 mph83%30.15 "HgN/A
3:30 am66 °FPassing clouds.3 mph83%30.12 "HgN/A
3:00 am66 °FPassing clouds.2 mph83%30.12 "HgN/A
Weather by CustomWeather, © 2017

See weather overviewHow to use our weather pages